Content
SEND FEEDBACK

Daily
Averages
Monthly
Summary
United States of America

BEAVERTON, MICHIGAN


Home > North America > United States > Michigan
Elevation: 783 feet     Latitude: 43 58N     Longitude: 084 30W

WEATHER
 
SELECT A DAY
Number of Records: 108,730;   Date Range: 1/13/10 - 9/15/14
 
SHARE

PRINT THIS DATA

[ ← Previous Day ]
WEATHER ALMANAC - FEBRUARY 13, 2013
[ Next Day → ]
[ °C ]   °F
Weather ElementAverageHighLow
Temperature30.3 °F34 °F (5:14 pm)26.4 °F (6:54 am)
Dewpoint25.1 °F27.5 °F (4:34 pm)20.1 °F (12:34 am)
Humidity80.9 %86 % (7:54 am)75 % (12:34 am)
Barometer29.77 in29.89 in (12:34 am)29.71 in (2:54 pm)
Wind Speed5.5 mph11.5 mph (11:54 am)
Wind Gust18.4 mph (1:14 pm)
Weather ElementAverage
Visibility9 mi
Wind DirectionSSE (172.7 °)

Weather ElementTotal
Precipitation---
Heating Degree Days34.8 (Base 65)
Averaged from 71 records on February 13, 2013
WEATHER CONDITIONS BREAKOUT
WIND DIRECTION BREAKOUT
WEATHER BY HOUR - FEBRUARY 13, 2013
[ °C ]   °F
Local TimeTemperatureDewpointHumidityBarometerVisibilityWind DirectionWind SpeedGust SpeedPrecipitationEventsConditions
12:34 AM27.0 °F20.1 °F75 %29.89 in10.0 miWSW (250°)3.5 mphOvercast
12:54 AM26.6 °F20.1 °F77 %29.88 in10.0 miSW (220°)4.6 mphOvercast
1:13 AM26.8 °F20.7 °F78 %29.88 in10.0 miSW (220°)3.5 mphOvercast
1:34 AM26.8 °F20.8 °F78 %29.88 in10.0 miSSW (200°)3.5 mphOvercast
1:54 AM27.0 °F21.0 °F78 %29.87 in10.0 miSSW (210°)4.6 mphOvercast
2:14 AM27.1 °F21.4 °F79 %29.87 in10.0 miSW (220°)4.6 mphOvercast
2:34 AM27.3 °F21.7 °F80 %29.87 in10.0 miSW (230°)6.9 mphOvercast
2:53 AM27.5 °F21.9 °F80 %29.87 in10.0 miSW (220°)8.1 mphOvercast
3:14 AM27.9 °F22.1 °F79 %29.87 in10.0 miSW (220°)5.8 mphOvercast
3:34 AM28.0 °F22.1 °F78 %29.86 in10.0 miSW (220°)4.6 mphOvercast
3:53 AM28.0 °F22.5 °F80 %29.86 in10.0 miSW (220°)4.6 mphOvercast
4:14 AM28.0 °F22.6 °F80 %29.86 in10.0 miSW (230°)6.9 mphOvercast
4:33 AM28.2 °F22.8 °F80 %29.85 in10.0 miSW (230°)6.9 mphOvercast
4:54 AM28.2 °F23.0 °F81 %29.84 in10.0 miSSW (210°)4.6 mphOvercast
5:14 AM28.2 °F23.0 °F81 %29.84 in10.0 miSSW (210°)4.6 mphOvercast
5:33 AM28.4 °F23.0 °F80 %29.83 in10.0 miSSW (200°)5.8 mphOvercast
5:54 AM28.4 °F23.0 °F80 %29.82 in10.0 miSSW (200°)3.5 mphOvercast
6:14 AM28.2 °F23.0 °F81 %29.82 in10.0 miSSW (200°)3.5 mphOvercast
6:33 AM27.5 °F22.8 °F83 %29.81 in10.0 miSW (220°)3.5 mphOvercast
6:54 AM26.4 °F21.9 °F83 %29.80 in10.0 miSouth (190°)4.6 mphOvercast
7:14 AM27.1 °F22.8 °F84 %29.80 in10.0 miSouth (190°)3.5 mphOvercast
7:34 AM27.0 °F23.0 °F85 %29.79 in10.0 miSouth (190°)4.6 mphOvercast
7:54 AM26.6 °F23.0 °F86 %29.79 in10.0 miSouth (180°)6.9 mphOvercast
8:14 AM27.1 °F23.4 °F86 %29.79 in10.0 miSSW (200°)5.8 mphOvercast
8:34 AM27.3 °F23.4 °F85 %29.79 in10.0 miSSW (200°)6.9 mphOvercast
8:54 AM27.5 °F23.5 °F85 %29.78 in10.0 miSouth (190°)6.9 mphOvercast
9:14 AM28.2 °F23.7 °F83 %29.78 in10.0 miSouth (190°)6.9 mphOvercast
9:34 AM28.4 °F23.9 °F83 %29.78 in10.0 miSouth (190°)8.1 mphOvercast
9:54 AM28.6 °F23.9 °F83 %29.78 in10.0 miSouth (190°)8.1 mphOvercast
10:14 AM29.1 °F24.4 °F83 %29.77 in10.0 miSSW (200°)8.1 mphOvercast
10:34 AM29.3 °F24.8 °F83 %29.77 in10.0 miSSW (200°)9.2 mphOvercast
10:54 AM29.8 °F25.2 °F83 %29.76 in10.0 miSouth (190°)9.2 mphOvercast
11:14 AM30.2 °F25.3 °F82 %29.76 in10.0 miSSW (200°)6.9 mphOvercast
11:34 AM30.9 °F25.7 °F81 %29.76 in10.0 miSSW (200°)9.2 mphOvercast
11:54 AM31.1 °F25.9 °F81 %29.76 in10.0 miSSW (200°)11.5 mphOvercast
12:13 PM31.6 °F26.2 °F80 %29.76 in10.0 miSSW (200°)9.2 mphOvercast
12:34 PM31.8 °F26.2 °F80 %29.75 in10.0 miSSW (200°)10.4 mphOvercast
12:54 PM32.0 °F26.4 °F80 %29.75 in7.0 miSSW (210°)10.4 mphOvercast
1:14 PM32.2 °F26.8 °F80 %29.74 in7.0 miSSW (200°)10.4 mph18.4 mphOvercast
1:34 PM32.4 °F27.0 °F80 %29.73 in10.0 miSSW (210°)9.2 mphOvercast
1:54 PM32.9 °F27.1 °F79 %29.72 in10.0 miSSW (200°)10.4 mphOvercast
2:14 PM33.1 °F27.0 °F78 %29.72 in10.0 miSW (220°)8.1 mphOvercast
2:34 PM33.1 °F27.0 °F78 %29.72 in7.0 miSSW (210°)10.4 mphOvercast
2:54 PM33.3 °F27.3 °F79 %29.71 in7.0 miSW (220°)9.2 mphOvercast
3:14 PM33.4 °F27.1 °F78 %29.71 in10.0 miSSW (210°)11.5 mphOvercast
3:34 PM33.3 °F27.3 °F79 %29.71 in7.0 miSSW (210°)10.4 mphOvercast
3:54 PM33.1 °F27.3 °F79 %29.71 in7.0 miSSW (210°)5.8 mphOvercast
4:15 PM33.1 °F27.3 °F79 %29.71 in7.0 miSW (220°)8.1 mphOvercast
4:34 PM33.4 °F27.5 °F79 %29.71 in7.0 miWSW (240°)6.9 mphOvercast
4:54 PM33.8 °F27.5 °F78 %29.71 in7.0 miWSW (240°)5.8 mphMostly Cloudy
5:14 PM34.0 °F27.5 °F77 %29.71 in10.0 miSW (230°)4.6 mphMostly Cloudy
5:34 PM33.8 °F27.5 °F78 %29.71 in10.0 miSW (220°)6.9 mphOvercast
5:53 PM33.8 °F27.3 °F77 %29.71 in7.0 miSSW (200°)6.9 mphOvercast
6:14 PM33.1 °F27.0 °F78 %29.71 in10.0 miSSW (210°)4.6 mphOvercast
6:34 PM32.4 °F27.1 °F81 %29.72 in10.0 miSouth (190°)3.5 mphOvercast
6:54 PM32.2 °F27.1 °F82 %29.72 in10.0 miSouth (190°)3.5 mphOvercast
7:14 PM32.0 °F27.1 °F82 %29.72 in7.0 miSSW (200°)4.6 mphOvercast
7:35 PM32.0 °F27.3 °F83 %29.72 in10.0 miSouth (190°)4.6 mphOvercast
7:54 PM32.0 °F27.1 °F82 %29.73 in7.0 miSSW (200°)3.5 mphOvercast
8:14 PM32.0 °F27.1 °F82 %29.73 in7.0 miCalmOvercast
8:35 PM31.8 °F27.1 °F83 %29.73 in7.0 miCalmOvercast
8:54 PM32.0 °F27.3 °F83 %29.72 in7.0 miCalmOvercast
9:14 PM32.0 °F27.3 °F83 %29.72 in7.0 miCalmOvercast
9:34 PM31.8 °F27.3 °F83 %29.72 in7.0 miCalmOvercast
9:54 PM31.8 °F27.1 °F83 %29.72 in7.0 miCalmOvercast
10:15 PM31.8 °F27.1 °F83 %29.72 in7.0 miCalmOvercast
10:34 PM32.0 °F27.3 °F83 %29.72 in7.0 miCalmOvercast
10:54 PM32.0 °F27.5 °F83 %29.71 in7.0 miCalmOvercast
11:15 PM32.0 °F27.5 °F83 %29.71 in7.0 miCalmOvercast
11:34 PM32.0 °F27.3 °F83 %29.71 in7.0 miCalmOvercast
11:54 PM32.0 °F27.3 °F83 %29.71 in7.0 miCalmOvercast
Hourly data recorded from KIKW, located miles away from Beaverton, Michigan







STORIES FROM OUR PARTNERS